| time (UTC) | temp F | wind direction | speed MPH | gust MPH | rain 1hr in | rain 24hr in | rain mn in | humidity % | barometer mb |
| 20260505062008 | 57 | 55 | 0.0 | 2.0 | 0.00 | 0.00 | 0.00 | 83 | 1010.8 |
| 20260505061506 | 57 | 68 | 1.0 | 2.0 | 0.00 | 0.00 | 0.00 | 83 | 1010.9 |
| 20260505061003 | 57 | 80 | 1.0 | 2.0 | 0.00 | 0.00 | 0.00 | 83 | 1010.7 |
| 20260505060500 | 57 | 75 | 2.0 | 2.0 | 0.00 | 0.00 | 0.00 | 83 | 1010.7 |
| 20260505055956 | 58 | 60 | 2.0 | 2.0 | 0.00 | 0.00 | 0.00 | 82 | 1010.5 |
| 20260505055452 | 58 | 47 | 1.0 | 2.0 | 0.00 | 0.00 | 0.00 | 82 | 1010.6 |
| 20260505054949 | 58 | 69 | 0.0 | 2.0 | 0.00 | 0.00 | 0.00 | 81 | 1010.5 |
| 20260505054447 | 58 | 58 | 1.0 | 3.0 | 0.00 | 0.00 | 0.00 | 81 | 1010.5 |
| 20260505053944 | 58 | 64 | 2.0 | 2.0 | 0.00 | 0.00 | 0.00 | 81 | 1010.5 |
| 20260505053441 | 59 | 103 | 0.0 | 2.0 | 0.00 | 0.00 | 0.00 | 80 | 1010.4 |
| 20260505052938 | 59 | 105 | 0.0 | 1.0 | 0.00 | 0.00 | 0.00 | 79 | 1010.4 |
| 20260505052435 | 59 | 43 | 0.0 | 2.0 | 0.00 | 0.00 | 0.00 | 79 | 1010.4 |
| 20260505051932 | 59 | 9 | 0.0 | 2.0 | 0.00 | 0.00 | 0.00 | 78 | 1010.4 |
| 20260505051429 | 59 | 55 | 1.0 | 2.0 | 0.00 | 0.00 | 0.00 | 78 | 1010.1 |
| 20260505050927 | 60 | 31 | 0.0 | 2.0 | 0.00 | 0.00 | 0.00 | 77 | 1010.0 |
| 20260505050425 | 60 | 79 | 1.0 | 2.0 | 0.00 | 0.00 | 0.00 | 76 | 1010.2 |
| 20260505041353 | 63 | 50 | 0.0 | 2.0 | 0.00 | 0.00 | 0.00 | 69 | 1009.7 |
| 20260505040850 | 63 | 40 | 1.0 | 2.0 | 0.00 | 0.00 | 0.00 | 67 | 1009.7 |
| 20260505040347 | 64 | 44 | 1.0 | 1.0 | 0.00 | 0.00 | 0.00 | 67 | 1009.7 |
| 20260505035844 | 64 | 28 | 0.0 | 2.0 | 0.00 | 0.00 | 0.00 | 66 | 1009.7 |
| 20260505035340 | 64 | 62 | 0.0 | 2.0 | 0.00 | 0.00 | 0.00 | 65 | 1009.5 |
| 20260505034837 | 65 | 60 | 0.0 | 2.0 | 0.00 | 0.00 | 0.00 | 66 | 1009.5 |
| 20260505034334 | 65 | 103 | 0.0 | 2.0 | 0.00 | 0.00 | 0.00 | 64 | 1009.4 |
| 20260505033831 | 66 | 38 | 0.0 | 2.0 | 0.00 | 0.00 | 0.00 | 63 | 1009.4 |
| 20260505033328 | 66 | 39 | 0.0 | 2.0 | 0.00 | 0.00 | 0.00 | 63 | 1009.5 |
| 20260505032826 | 67 | 25 | 0.0 | 2.0 | 0.00 | 0.00 | 0.00 | 61 | 1009.2 |
| 20260505032322 | 67 | 51 | 1.0 | 2.0 | 0.00 | 0.00 | 0.00 | 61 | 1009.3 |
| 20260505031820 | 68 | 0 | 0.0 | 2.0 | 0.00 | 0.00 | 0.00 | 59 | 1009.3 |
| 20260505031316 | 68 | 41 | 0.0 | 2.0 | 0.00 | 0.00 | 0.00 | 59 | 1009.3 |
| 20260505030813 | 69 | 17 | 0.0 | 2.0 | 0.00 | 0.00 | 0.00 | 57 | 1009.3 |
| 20260505030310 | 69 | 2 | 1.0 | 2.0 | 0.00 | 0.00 | 0.00 | 56 | 1009.4 |
| 20260505025804 | 69 | 11 | 1.0 | 2.0 | 0.00 | 0.00 | 0.00 | 55 | 1009.4 |
| 20260505025304 | 70 | 0 | 0.0 | 1.0 | 0.00 | 0.00 | 0.00 | 54 | 1009.4 |
| 20260505024801 | 70 | 344 | 1.0 | 2.0 | 0.00 | 0.00 | 0.00 | 53 | 1009.3 |
| 20260505024258 | 71 | 12 | 0.0 | 2.0 | 0.00 | 0.00 | 0.00 | 50 | 1009.5 |
| 20260505023755 | 72 | 359 | 0.0 | 2.0 | 0.00 | 0.00 | 0.00 | 50 | 1009.3 |
| 20260505023252 | 73 | 57 | 0.0 | 1.0 | 0.00 | 0.00 | 0.00 | 45 | 1009.3 |
| 20260505022749 | 74 | 343 | 0.0 | 4.0 | 0.00 | 0.00 | 0.00 | 40 | 1009.5 |
| 20260505022246 | 74 | 275 | 3.0 | 5.0 | 0.00 | 0.00 | 0.00 | 39 | 1009.5 |
| 20260505021743 | 74 | 62 | 1.0 | 2.0 | 0.00 | 0.00 | 0.00 | 42 | 1009.5 |
| 20260505021240 | 75 | 9 | 1.0 | 2.0 | 0.00 | 0.00 | 0.00 | 38 | 1009.7 |
| 20260505020735 | 74 | 326 | 0.0 | 2.0 | 0.00 | 0.00 | 0.00 | 37 | 1009.8 |
| 20260505020231 | 74 | 318 | 3.0 | 5.0 | 0.00 | 0.00 | 0.00 | 37 | 1009.7 |
| 20260505015728 | 74 | 9 | 2.0 | 3.0 | 0.00 | 0.00 | 0.00 | 37 | 1009.9 |
| 20260505015225 | 74 | 311 | 3.0 | 3.0 | 0.00 | 0.00 | 0.00 | 37 | 1009.8 |
| 20260505014722 | 74 | 336 | 2.0 | 2.0 | 0.00 | 0.00 | 0.00 | 36 | 1009.8 |
| 20260505014220 | 74 | 324 | 3.0 | 3.0 | 0.00 | 0.00 | 0.00 | 37 | 1010.0 |
| 20260505013716 | 74 | 111 | 0.0 | 6.0 | 0.00 | 0.00 | 0.00 | 37 | 1009.9 |
| 20260505013213 | 74 | 312 | 2.0 | 4.0 | 0.00 | 0.00 | 0.00 | 37 | 1010.1 |
| 20260505012712 | 74 | 303 | 3.0 | 6.0 | 0.00 | 0.00 | 0.00 | 37 | 1010.0 |
| 20260505012209 | 75 | 38 | 2.0 | 4.0 | 0.00 | 0.00 | 0.00 | 37 | 1010.0 |
| 20260505011704 | 75 | 319 | 2.0 | 3.0 | 0.00 | 0.00 | 0.00 | 37 | 1010.0 |
| 20260505011202 | 76 | 235 | 0.0 | 1.0 | 0.00 | 0.00 | 0.00 | 37 | 1009.9 |
| 20260505010657 | 76 | 272 | 0.0 | 3.0 | 0.00 | 0.00 | 0.00 | 38 | 1010.0 |
| 20260505010154 | 75 | 281 | 1.0 | 3.0 | 0.00 | 0.00 | 0.00 | 39 | 1009.9 |
| 20260505005650 | 76 | 245 | 2.0 | 3.0 | 0.00 | 0.00 | 0.00 | 37 | 1010.0 |
| 20260505005147 | 76 | 225 | 3.0 | 3.0 | 0.00 | 0.00 | 0.00 | 38 | 1010.0 |
| 20260505004644 | 77 | 50 | 0.0 | 3.0 | 0.00 | 0.00 | 0.00 | 37 | 1010.0 |
| 20260505004140 | 77 | 125 | 4.0 | 4.0 | 0.00 | 0.00 | 0.00 | 39 | 1009.9 |
| 20260505003638 | 76 | 125 | 3.0 | 9.0 | 0.00 | 0.00 | 0.00 | 38 | 1010.1 |
| 20260505003135 | 78 | 301 | 4.0 | 4.0 | 0.00 | 0.00 | 0.00 | 39 | 1010.0 |
| 20260505002631 | 79 | 286 | 1.0 | 2.0 | 0.00 | 0.00 | 0.00 | 38 | 1010.0 |
| 20260505002130 | 79 | 326 | 2.0 | 4.0 | 0.00 | 0.00 | 0.00 | 37 | 1010.0 |
| 20260505001626 | 80 | 129 | 2.0 | 4.0 | 0.00 | 0.00 | 0.00 | 37 | 1010.1 |
| 20260505001124 | 80 | 55 | 0.0 | 2.0 | 0.00 | 0.00 | 0.00 | 38 | 1010.3 |
| 20260505000621 | 80 | 325 | 1.0 | 3.0 | 0.00 | 0.00 | 0.00 | 37 | 1010.1 |
| 20260505000119 | 80 | 42 | 1.0 | 4.0 | 0.00 | 0.00 | 0.00 | 37 | 1010.2 |
| 20260504235615 | 79 | 120 | 2.0 | 6.0 | 0.00 | 0.00 | 0.00 | 39 | 1010.3 |
| 20260504235112 | 81 | 125 | 5.0 | 5.0 | 0.00 | 0.00 | 0.00 | 37 | 1010.1 |
| 20260504234609 | 81 | 10 | 2.0 | 4.0 | 0.00 | 0.00 | 0.00 | 37 | 1010.1 |
| 20260504234106 | 80 | 319 | 0.0 | 3.0 | 0.00 | 0.00 | 0.00 | 38 | 1010.3 |
| 20260504233601 | 79 | 350 | 2.0 | 3.0 | 0.00 | 0.00 | 0.00 | 38 | 1010.2 |
| 20260504233058 | 80 | 129 | 0.0 | 6.0 | 0.00 | 0.00 | 0.00 | 37 | 1010.1 |
| 20260504232555 | 82 | 321 | 2.0 | 4.0 | 0.00 | 0.00 | 0.00 | 37 | 1010.1 |
| 20260504232053 | 82 | 140 | 1.0 | 4.0 | 0.00 | 0.00 | 0.00 | 35 | 1010.3 |
| 20260504231549 | 81 | 19 | 0.0 | 4.0 | 0.00 | 0.00 | 0.00 | 36 | 1010.3 |
| 20260504231045 | 81 | 350 | 3.0 | 3.0 | 0.00 | 0.00 | 0.00 | 36 | 1010.3 |
| 20260504230541 | 82 | 29 | 2.0 | 5.0 | 0.00 | 0.00 | 0.00 | 34 | 1010.4 |
| 20260504230041 | 84 | 49 | 4.0 | 4.0 | 0.00 | 0.00 | 0.00 | 33 | 1010.4 |
| 20260504225537 | 82 | 147 | 2.0 | 2.0 | 0.00 | 0.00 | 0.00 | 37 | 1010.4 |
| 20260504225034 | 83 | 200 | 0.0 | 2.0 | 0.00 | 0.00 | 0.00 | 36 | 1010.6 |
| 20260504224531 | 85 | 237 | 3.0 | 3.0 | 0.00 | 0.00 | 0.00 | 34 | 1010.6 |
| 20260504224028 | 84 | 89 | 0.0 | 2.0 | 0.00 | 0.00 | 0.00 | 34 | 1010.7 |
| 20260504223525 | 82 | 348 | 0.0 | 2.0 | 0.00 | 0.00 | 0.00 | 36 | 1010.7 |
| 20260504223021 | 82 | 78 | 1.0 | 2.0 | 0.00 | 0.00 | 0.00 | 35 | 1010.5 |
| 20260504222518 | 81 | 234 | 3.0 | 4.0 | 0.00 | 0.00 | 0.00 | 37 | 1010.8 |
| 20260504222015 | 81 | 235 | 1.0 | 4.0 | 0.00 | 0.00 | 0.00 | 36 | 1010.5 |
| 20260504221512 | 81 | 304 | 1.0 | 2.0 | 0.00 | 0.00 | 0.00 | 36 | 1010.6 |
| 20260504221009 | 81 | 72 | 1.0 | 4.0 | 0.00 | 0.00 | 0.00 | 32 | 1010.8 |
| 20260504220505 | 81 | 219 | 2.0 | 3.0 | 0.00 | 0.00 | 0.00 | 34 | 1010.9 |
| 20260504220002 | 80 | 223 | 0.0 | 2.0 | 0.00 | 0.00 | 0.00 | 36 | 1010.9 |
| 20260504215459 | 80 | 214 | 0.0 | 2.0 | 0.00 | 0.00 | 0.00 | 36 | 1010.9 |
| 20260504214956 | 79 | 67 | 3.0 | 4.0 | 0.00 | 0.00 | 0.00 | 38 | 1010.9 |
| 20260504214452 | 78 | 286 | 1.0 | 4.0 | 0.00 | 0.00 | 0.00 | 39 | 1011.1 |
| 20260504213949 | 79 | 112 | 0.0 | 3.0 | 0.00 | 0.00 | 0.00 | 40 | 1010.9 |
| 20260504213445 | 78 | 88 | 0.0 | 2.0 | 0.00 | 0.00 | 0.00 | 42 | 1010.9 |
| 20260504212943 | 78 | 102 | 1.0 | 4.0 | 0.00 | 0.00 | 0.00 | 41 | 1010.8 |
| 20260504212438 | 78 | 100 | 1.0 | 4.0 | 0.00 | 0.00 | 0.00 | 40 | 1011.1 |
| 20260504211936 | 78 | 96 | 1.0 | 3.0 | 0.00 | 0.00 | 0.00 | 40 | 1011.1 |
| 20260504211432 | 77 | 95 | 0.0 | 3.0 | 0.00 | 0.00 | 0.00 | 42 | 1011.1 |
| 20260504210930 | 78 | 80 | 1.0 | 4.0 | 0.00 | 0.00 | 0.00 | 40 | 1011.2 |
| 20260504210426 | 78 | 61 | 2.0 | 3.0 | 0.00 | 0.00 | 0.00 | 39 | 1011.0 |
| 20260504205924 | 78 | 246 | 1.0 | 2.0 | 0.00 | 0.00 | 0.00 | 39 | 1011.3 |
| 20260504205421 | 76 | 95 | 3.0 | 4.0 | 0.00 | 0.00 | 0.00 | 42 | 1011.2 |
| 20260504204919 | 75 | 85 | 2.0 | 4.0 | 0.00 | 0.00 | 0.00 | 42 | 1011.3 |
| 20260504204417 | 75 | 244 | 3.0 | 4.0 | 0.00 | 0.00 | 0.00 | 42 | 1011.2 |
| 20260504203916 | 77 | 256 | 2.0 | 4.0 | 0.00 | 0.00 | 0.00 | 40 | 1011.2 |
| 20260504203413 | 77 | 262 | 0.0 | 2.0 | 0.00 | 0.00 | 0.00 | 39 | 1011.2 |
| 20260504202909 | 77 | 234 | 1.0 | 2.0 | 0.00 | 0.00 | 0.00 | 41 | 1011.2 |
| 20260504202406 | 76 | 80 | 2.0 | 3.0 | 0.00 | 0.00 | 0.00 | 43 | 1011.4 |
| 20260504201903 | 76 | 104 | 2.0 | 2.0 | 0.00 | 0.00 | 0.00 | 43 | 1011.3 |
| 20260504201400 | 75 | 54 | 2.0 | 5.0 | 0.00 | 0.00 | 0.00 | 42 | 1011.5 |
| 20260504200857 | 74 | 234 | 1.0 | 3.0 | 0.00 | 0.00 | 0.00 | 42 | 1011.6 |
| 20260504200354 | 74 | 214 | 0.0 | 3.0 | 0.00 | 0.00 | 0.00 | 44 | 1011.6 |
| 20260504195851 | 74 | 238 | 2.0 | 4.0 | 0.00 | 0.00 | 0.00 | 43 | 1011.4 |
| 20260504195346 | 73 | 54 | 2.0 | 4.0 | 0.00 | 0.00 | 0.00 | 46 | 1011.5 |
| 20260504194843 | 73 | 274 | 2.0 | 4.0 | 0.00 | 0.00 | 0.00 | 47 | 1011.4 |
| 20260504194339 | 74 | 68 | 4.0 | 4.0 | 0.00 | 0.00 | 0.00 | 44 | 1011.3 |
| 20260504193835 | 74 | 255 | 1.0 | 4.0 | 0.00 | 0.00 | 0.00 | 47 | 1011.5 |
| 20260504193332 | 72 | 261 | 1.0 | 3.0 | 0.00 | 0.00 | 0.00 | 48 | 1011.5 |
| 20260504192831 | 72 | 234 | 2.0 | 4.0 | 0.00 | 0.00 | 0.00 | 49 | 1011.5 |
| 20260504192329 | 71 | 67 | 2.0 | 3.0 | 0.00 | 0.00 | 0.00 | 49 | 1011.6 |
| 20260504191827 | 71 | 102 | 3.0 | 3.0 | 0.00 | 0.00 | 0.00 | 48 | 1011.3 |
| 20260504191324 | 71 | 53 | 3.0 | 4.0 | 0.00 | 0.00 | 0.00 | 49 | 1011.6 |
| 20260504190819 | 71 | 112 | 3.0 | 5.0 | 0.00 | 0.00 | 0.00 | 51 | 1011.6 |
| 20260504190316 | 72 | 113 | 2.0 | 5.0 | 0.00 | 0.00 | 0.00 | 52 | 1011.5 |
| 20260504185813 | 72 | 119 | 0.0 | 2.0 | 0.00 | 0.00 | 0.00 | 48 | 1011.6 |
| 20260504185310 | 71 | 106 | 3.0 | 4.0 | 0.00 | 0.00 | 0.00 | 52 | 1011.5 |
| 20260504184806 | 71 | 59 | 2.0 | 4.0 | 0.00 | 0.00 | 0.00 | 54 | 1011.6 |
| 20260504184301 | 70 | 76 | 0.0 | 3.0 | 0.00 | 0.00 | 0.00 | 54 | 1011.6 |
| 20260504183757 | 70 | 245 | 2.0 | 2.0 | 0.00 | 0.00 | 0.00 | 52 | 1011.7 |
| 20260504183254 | 69 | 79 | 1.0 | 4.0 | 0.00 | 0.00 | 0.00 | 53 | 1011.5 |
| 20260504182753 | 69 | 62 | 1.0 | 4.0 | 0.00 | 0.00 | 0.00 | 57 | 1011.5 |
| 20260504182249 | 69 | 54 | 2.0 | 3.0 | 0.00 | 0.00 | 0.00 | 55 | 1011.6 |
| 20260504181747 | 68 | 67 | 2.0 | 3.0 | 0.00 | 0.00 | 0.00 | 57 | 1011.8 |
| 20260504181244 | 68 | 68 | 3.0 | 4.0 | 0.00 | 0.00 | 0.00 | 58 | 1011.6 |
| 20260504180743 | 69 | 85 | 2.0 | 4.0 | 0.00 | 0.00 | 0.00 | 55 | 1011.5 |
| 20260504180241 | 69 | 62 | 0.0 | 3.0 | 0.00 | 0.00 | 0.00 | 57 | 1011.5 |
| 20260504175739 | 67 | 44 | 0.0 | 2.0 | 0.00 | 0.00 | 0.00 | 56 | 1011.6 |
| 20260504175235 | 67 | 188 | 1.0 | 2.0 | 0.00 | 0.00 | 0.00 | 57 | 1011.5 |
| 20260504174733 | 66 | 64 | 2.0 | 3.0 | 0.00 | 0.00 | 0.00 | 60 | 1011.4 |
| 20260504174231 | 66 | 95 | 2.0 | 3.0 | 0.00 | 0.00 | 0.00 | 62 | 1011.7 |
| 20260504173727 | 65 | 102 | 2.0 | 4.0 | 0.00 | 0.00 | 0.00 | 62 | 1011.7 |
| 20260504173224 | 66 | 114 | 3.0 | 4.0 | 0.00 | 0.00 | 0.00 | 61 | 1011.7 |
| 20260504172721 | 66 | 79 | 2.0 | 2.0 | 0.00 | 0.00 | 0.00 | 64 | 1011.8 |
| 20260504172217 | 65 | 133 | 3.0 | 3.0 | 0.00 | 0.00 | 0.00 | 63 | 1011.5 |
| 20260504171714 | 65 | 103 | 0.0 | 3.0 | 0.00 | 0.00 | 0.00 | 65 | 1011.6 |
| 20260504171211 | 64 | 184 | 1.0 | 2.0 | 0.00 | 0.00 | 0.00 | 64 | 1011.6 |
| 20260504170708 | 64 | 121 | 3.0 | 4.0 | 0.00 | 0.00 | 0.00 | 69 | 1011.6 |
| 20260504170205 | 63 | 67 | 0.0 | 2.0 | 0.00 | 0.00 | 0.00 | 69 | 1011.4 |
| 20260504160124 | 58 | 87 | 1.0 | 4.0 | 0.00 | 0.00 | 0.00 | 79 | 1011.6 |
| 20260504151051 | 54 | 160 | 0.0 | 2.0 | 0.00 | 0.00 | 0.00 | 81 | 1011.4 |
| 20260504150548 | 53 | 68 | 2.0 | 2.0 | 0.00 | 0.00 | 0.00 | 83 | 1011.4 |
| 20260504141014 | 53 | 33 | 2.0 | 3.0 | 0.00 | 0.00 | 0.00 | 82 | 1011.0 |
| 20260504140511 | 53 | 41 | 2.0 | 2.0 | 0.00 | 0.00 | 0.00 | 81 | 1011.1 |
| 20260504130435 | 53 | 40 | 2.0 | 2.0 | 0.00 | 0.00 | 0.00 | 81 | 1010.4 |
| 20260504110322 | 54 | 61 | 1.0 | 2.0 | 0.00 | 0.00 | 0.00 | 78 | 1010.4 |
| 20260504100240 | 55 | 35 | 1.0 | 2.0 | 0.00 | 0.00 | 0.00 | 75 | 1010.2 |
| 20260504081633 | 57 | 37 | 1.0 | 3.0 | 0.00 | 0.00 | 0.00 | 70 | 1010.3 |
| 20260504081129 | 57 | 49 | 1.0 | 2.0 | 0.00 | 0.00 | 0.00 | 70 | 1010.4 |
| 20260504080626 | 57 | 89 | 0.0 | 2.0 | 0.00 | 0.00 | 0.00 | 69 | 1010.4 |
| 20260504080122 | 58 | 35 | 0.0 | 2.0 | 0.00 | 0.00 | 0.00 | 68 | 1010.4 |